Weather History for Agadir Al Massira, Morocco

Change the Weather History Date:

Wednesday, November 7, 2012

  Actual Average Record
Temperature  
Mean Temperature 72 °F -  
Max Temperature 81 °F - - ()
Min Temperature 64 °F - - ()
Cooling Degree Days 8    
Growing Degree Days 22 (Base 50)    
Moisture  
Dew Point 64 °F    
Average Humidity 76    
Maximum Humidity 94    
Minimum Humidity 46    
Precipitation  
Precipitation 0.00 in - - ()
Sea Level Pressure  
Sea Level Pressure 29.89 in    
Wind  
Wind Speed 5 mph ()    
Max Wind Speed 14 mph    
Max Gust Speed -    
Visibility 5.6 miles    
Events      
T = Trace of Precipitation, MM = Missing Value Source: Averaged Metar Reports

Daily Weather History Graph

Daily Weather History Graph

Search for Another Location

Airport:

Trip Planner

Search our weather history database for the weather conditions in past years. The results will help you decide how hot, cold, wet, or windy it might be!

Date:

Astronomy

Nov. 07, 2012 Rise Set
Actual Time 6:56 AM WET 5:45 PM WET
Civil Twilight 6:31 AM WET 6:10 PM WET
Nautical Twilight 6:03 AM WET 6:39 PM WET
Astronomical Twilight 5:34 AM WET 7:07 PM WET
Moon 12:06 AM WET (11/7) 1:20 PM WET (11/7)
Length of Visible Light 11h 38m
Length of Day
10h 48m
Last Quarter, 45% of the Moon is Illuminated
Nov 7
Last Quarter
Nov 13
New
Nov 20
First Quarter
Nov 28
Full
Dec 6
Last Quarter

Hourly Weather History & Observations

Time (WET) Temp. Heat Index Dew Point Humidity Pressure Visibility Wind Dir Wind Speed Gust Speed Precip Events Conditions
12:00 AM 69 °F - 65 °F 83% 29.90 in 6 mi SW 2.3 mph - -   Partly Cloudy
12:00 AM 68.0 °F - 64.4 °F 88% 29.89 in - SW 2.3 mph - N/A   Clear
1:00 AM 68.0 °F - 64.4 °F 88% 29.89 in - Calm Calm - N/A   Clear
2:00 AM 64.4 °F - 62.6 °F 94% 29.86 in - ENE 4.6 mph - N/A   Clear
3:00 AM 66 °F - 64 °F 89% 29.86 in 6 mi ENE 4.6 mph - -  
3:00 AM 66.2 °F - 64.4 °F 94% 29.86 in 6.2 mi ENE 4.6 mph - N/A   Unknown
4:00 AM 66.2 °F - 62.6 °F 88% 29.83 in 6.2 mi East 5.8 mph - N/A   Unknown
5:00 AM 66.2 °F - 62.6 °F 88% 29.83 in - ESE 8.1 mph - N/A   Clear
6:00 AM 68 °F - 61 °F 71% 29.83 in 6 mi East 13.8 mph - -   Partly Cloudy
6:00 AM 68.0 °F - 60.8 °F 78% 29.80 in - East 12.7 mph - N/A   Clear
7:00 AM 66.2 °F - 60.8 °F 83% 29.83 in - ENE 5.8 mph - N/A   Clear
8:00 AM 68.0 °F - 60.8 °F 78% 29.86 in - ENE 3.5 mph - N/A   Clear
9:00 AM 71 °F - 64 °F 71% 29.90 in 6 mi WSW 6.9 mph - -   Mostly Cloudy
9:00 AM 71.6 °F - 64.4 °F 78% 29.89 in - WSW 6.9 mph - N/A   Clear
10:00 AM 75.2 °F - 66.2 °F 73% 29.92 in - SSW 6.9 mph - N/A   Clear
11:00 AM 77.0 °F - 64.4 °F 65% 29.92 in - SSW 8.1 mph - N/A   Clear
12:00 PM 79 °F - 62 °F 46% 29.91 in 6 mi SW 8.1 mph - -   Partly Cloudy
12:00 PM 78.8 °F - 62.6 °F 57% 29.92 in - SW 8.1 mph - N/A   Clear
1:00 PM 80.6 °F 82.3 °F 64.4 °F 58% 29.89 in - West 8.1 mph - N/A   Clear
2:00 PM 80.6 °F 81.8 °F 62.6 °F 54% 29.89 in - WSW 9.2 mph - N/A   Clear
3:00 PM 79 °F - 65 °F 53% 29.88 in 6 mi SW 8.1 mph - -   Partly Cloudy
3:00 PM 78.8 °F - 64.4 °F 61% 29.89 in - SW 8.1 mph - N/A   Clear
4:00 PM 78.8 °F - 62.6 °F 57% 29.89 in - WSW 8.1 mph - N/A   Clear
5:00 PM 75.2 °F - 64.4 °F 69% 29.89 in - WSW 8.1 mph - N/A   Clear
6:00 PM 73 °F - 65 °F 69% 29.89 in 6 mi WSW 5.8 mph - -   Mostly Cloudy
6:00 PM 73.4 °F - 64.4 °F 73% 29.89 in - WSW 5.8 mph - N/A   Clear
7:00 PM 71.6 °F - 66.2 °F 83% 29.92 in - West 6.9 mph - N/A   Clear
8:00 PM 71.6 °F - 66.2 °F 83% 29.92 in - WSW 5.8 mph - N/A   Clear
9:00 PM 71 °F - 68 °F 87% 29.94 in 5 mi SW 4.6 mph - -   Mostly Cloudy
9:00 PM 71.6 °F - 68.0 °F 88% 29.95 in 5.0 mi SW 4.6 mph - N/A   Mostly Cloudy
10:00 PM 69.8 °F - 68.0 °F 94% 29.95 in 5.0 mi SW 3.5 mph - N/A   Mostly Cloudy
11:00 PM 69.8 °F - 68.0 °F 94% 29.95 in 3.7 mi SW 3.5 mph - N/A   Mostly Cloudy